Location: Brienzwiler
(46.7508°N, 8.1014°E)
Time: 01:40:00
(UTC+00:00)

Cosmos 2112 Rocket - Pass Details

Date: 05 July 2020
Orbit: 756 x 787 km, 74.1° (Epoch: 11 August)

Event Time Altitude Azimuth Distance (km) Brightness Sun altitude
Exits shadow 22:48:22 23° 221° (SW) 1,602 5.3 -19.9°
Maximum altitude 22:51:36 61° 295° (WNW) 889 4.4 -20.0°
Drops below altitude 10° 22:56:55 10° 16° (NNE) 2,358 7.5 -20.1°
Sets 22:59:22 0° 20° (NNE) 3,291 8.3 -20.2°
